Tracking 18840 objects as of 19-November-2017
HD Live streaming from Space Station
objects crossing your sky now

COSMOS 1254

Track COSMOS 1254 now!
10-day predictions
COSMOS 1254 is classified as:


NORAD ID: 12324
Int'l Code: 1981-022E
Perigee: 1,438.2 km
Apogee: 1,479.4 km
Inclination: 74.0 °
Period: 114.9 minutes
Semi major axis: 7829 km
RCS: 0.6949 m2 (medium)
Launch date: March 6, 1981
Source: Commonwealth of Independent States (former USSR) (CIS)
Launch site: PLESETSK MISSILE AND SPACE COMPLEX (PKMTR)
aabbcc
Your satellite tracking list
Your tracking list is empty




NASA's NSSDC Master Catalog

Two Line Element Set (TLE):
1 12324U 81022E   17322.75060899 -.00000025 +00000-0 -54919-4 0  9995
2 12324 074.0311 070.1495 0026298 006.2542 102.4597 12.53079597678975
Source of the keplerian elements: AFSPC